Date_Time,Julian_Date,Latitude,Longitude,Instrument_Depth,U,V,Speed,Direction
(yyyy-mm-dd hh:mn:ss UTC),(JD),(+ deg. North),(+ deg. East),(m),(cm/s),(cm/s),(cm/s),(deg True)
1983-06-15 16:30:00 UTC,2445501.187500,28.7317,-95.2428,0036,-19.42,-10.33,22.0000,242.0000
1983-06-15 17:00:00 UTC,2445501.208333,28.7317,-95.2428,0036,-18.87,-9.21,21.0000,244.0000
1983-06-15 17:30:00 UTC,2445501.229167,28.7317,-95.2428,0036,-18.27,-8.13,20.0000,246.0000
1983-06-15 18:00:00 UTC,2445501.250000,28.7317,-95.2428,0036,-17.62,-7.12,19.0000,248.0000
1983-06-15 18:30:00 UTC,2445501.270833,28.7317,-95.2428,0036,-17.12,-5.56,18.0000,252.0000
1983-06-15 19:00:00 UTC,2445501.291667,28.7317,-95.2428,0036,-18.65,-3.63,19.0000,259.0000
1983-06-15 19:30:00 UTC,2445501.312500,28.7317,-95.2428,0036,-21.97,-1.15,22.0000,267.0000
1983-06-15 20:00:00 UTC,2445501.333333,28.7317,-95.2428,0036,-24.98,0.87,25.0000,272.0000
1983-06-15 20:30:00 UTC,2445501.354167,28.7317,-95.2428,0036,-25.75,3.62,26.0000,278.0000
1983-06-15 21:00:00 UTC,2445501.375000,28.7317,-95.2428,0036,-27.17,6.77,28.0000,284.0000
1983-06-15 21:30:00 UTC,2445501.395833,28.7317,-95.2428,0036,-28.69,8.77,30.0000,287.0000
1983-06-15 22:00:00 UTC,2445501.416667,28.7317,-95.2428,0036,-29.31,10.09,31.0000,289.0000
1983-06-15 22:30:00 UTC,2445501.437500,28.7317,-95.2428,0036,-28.01,10.75,30.0000,291.0000
1983-06-15 23:00:00 UTC,2445501.458333,28.7317,-95.2428,0036,-28.01,10.75,30.0000,291.0000
1983-06-15 23:30:00 UTC,2445501.479167,28.7317,-95.2428,0036,-28.54,12.11,31.0000,293.0000
1983-06-16 00:00:00 UTC,2445501.500000,28.7317,-95.2428,0036,-28.10,13.10,31.0000,295.0000
1983-06-16 00:30:00 UTC,2445501.520833,28.7317,-95.2428,0036,-27.99,15.51,32.0000,299.0000
1983-06-16 01:00:00 UTC,2445501.541667,28.7317,-95.2428,0036,-28.29,17.00,33.0000,301.0000
1983-06-16 01:30:00 UTC,2445501.562500,28.7317,-95.2428,0036,-29.68,18.55,35.0000,302.0000
1983-06-16 02:00:00 UTC,2445501.583333,28.7317,-95.2428,0036,-30.00,18.03,35.0000,301.0000
1983-06-16 02:30:00 UTC,2445501.604167,28.7317,-95.2428,0036,-27.62,11.72,30.0000,293.0000
1983-06-16 03:00:00 UTC,2445501.625000,28.7317,-95.2428,0036,-25.90,2.27,26.0000,275.0000
1983-06-16 03:30:00 UTC,2445501.645833,28.7317,-95.2428,0036,-25.94,-1.81,26.0000,266.0000
1983-06-16 04:00:00 UTC,2445501.666667,28.7317,-95.2428,0036,-26.85,-2.82,27.0000,264.0000
1983-06-16 04:30:00 UTC,2445501.687500,28.7317,-95.2428,0036,-27.49,-5.34,28.0000,259.0000
1983-06-16 05:00:00 UTC,2445501.708333,28.7317,-95.2428,0036,-29.94,-8.02,31.0000,255.0000
1983-06-16 05:30:00 UTC,2445501.729167,28.7317,-95.2428,0036,-31.20,-10.74,33.0000,251.0000
1983-06-16 06:00:00 UTC,2445501.750000,28.7317,-95.2428,0036,-30.26,-10.42,32.0000,251.0000
1983-06-16 06:30:00 UTC,2445501.770833,28.7317,-95.2428,0036,-25.60,-4.51,26.0000,260.0000
1983-06-16 07:00:00 UTC,2445501.791667,28.7317,-95.2428,0036,-21.95,1.53,22.0000,274.0000
1983-06-16 07:30:00 UTC,2445501.812500,28.7317,-95.2428,0036,-20.61,4.01,21.0000,281.0000
1983-06-16 08:00:00 UTC,2445501.833333,28.7317,-95.2428,0036,-20.08,6.14,21.0000,287.0000
1983-06-16 08:30:00 UTC,2445501.854167,28.7317,-95.2428,0036,-17.98,8.77,20.0000,296.0000
1983-06-16 09:00:00 UTC,2445501.875000,28.7317,-95.2428,0036,-15.56,10.90,19.0000,305.0000
1983-06-16 09:30:00 UTC,2445501.895833,28.7317,-95.2428,0036,-12.95,12.50,18.0000,314.0000
1983-06-16 10:00:00 UTC,2445501.916667,28.7317,-95.2428,0036,-11.33,13.99,18.0000,321.0000
1983-06-16 10:30:00 UTC,2445501.937500,28.7317,-95.2428,0036,-11.18,16.58,20.0000,326.0000
1983-06-16 11:00:00 UTC,2445501.958333,28.7317,-95.2428,0036,-11.98,18.45,22.0000,327.0000
1983-06-16 11:30:00 UTC,2445501.979167,28.7317,-95.2428,0036,-11.98,18.45,22.0000,327.0000
1983-06-16 12:00:00 UTC,2445502.000000,28.7317,-95.2428,0036,-10.82,18.00,21.0000,329.0000
1983-06-16 12:30:00 UTC,2445502.020833,28.7317,-95.2428,0036,-10.83,14.38,18.0000,323.0000
1983-06-16 13:00:00 UTC,2445502.041667,28.7317,-95.2428,0036,-12.86,7.73,15.0000,301.0000
1983-06-16 13:30:00 UTC,2445502.062500,28.7317,-95.2428,0036,-14.82,2.35,15.0000,279.0000
1983-06-16 14:00:00 UTC,2445502.083333,28.7317,-95.2428,0036,-15.00,-0.00,15.0000,270.0000
1983-06-16 14:30:00 UTC,2445502.104167,28.7317,-95.2428,0036,-15.91,-1.67,16.0000,264.0000
1983-06-16 15:00:00 UTC,2445502.125000,28.7317,-95.2428,0036,-18.65,-3.63,19.0000,259.0000
1983-06-16 15:30:00 UTC,2445502.145833,28.7317,-95.2428,0036,-19.32,-5.18,20.0000,255.0000
1983-06-16 16:00:00 UTC,2445502.166667,28.7317,-95.2428,0036,-18.07,-5.87,19.0000,252.0000
1983-06-16 16:30:00 UTC,2445502.187500,28.7317,-95.2428,0036,-16.80,-6.45,18.0000,249.0000
1983-06-16 17:00:00 UTC,2445502.208333,28.7317,-95.2428,0036,-15.53,-6.91,17.0000,246.0000
1983-06-16 17:30:00 UTC,2445502.229167,28.7317,-95.2428,0036,-14.62,-6.51,16.0000,246.0000
1983-06-16 18:00:00 UTC,2445502.250000,28.7317,-95.2428,0036,-14.73,-6.25,16.0000,247.0000
1983-06-16 18:30:00 UTC,2445502.270833,28.7317,-95.2428,0036,-14.73,-6.25,16.0000,247.0000
1983-06-16 19:00:00 UTC,2445502.291667,28.7317,-95.2428,0036,-13.70,-6.10,15.0000,246.0000
1983-06-16 19:30:00 UTC,2445502.312500,28.7317,-95.2428,0036,-12.69,-5.92,14.0000,245.0000
1983-06-16 20:00:00 UTC,2445502.333333,28.7317,-95.2428,0036,-11.68,-5.70,13.0000,244.0000
1983-06-16 20:30:00 UTC,2445502.354167,28.7317,-95.2428,0036,-11.13,-4.50,12.0000,248.0000
1983-06-16 21:00:00 UTC,2445502.375000,28.7317,-95.2428,0036,-10.46,-3.40,11.0000,252.0000
1983-06-16 21:30:00 UTC,2445502.395833,28.7317,-95.2428,0036,-10.57,-3.03,11.0000,254.0000
1983-06-16 22:00:00 UTC,2445502.416667,28.7317,-95.2428,0036,-9.78,-2.08,10.0000,258.0000
1983-06-16 22:30:00 UTC,2445502.437500,28.7317,-95.2428,0036,-8.93,-1.10,9.0000,263.0000
1983-06-16 23:00:00 UTC,2445502.458333,28.7317,-95.2428,0036,-8.95,-0.94,9.0000,264.0000
1983-06-16 23:30:00 UTC,2445502.479167,28.7317,-95.2428,0036,-8.89,-1.41,9.0000,261.0000
1983-06-17 00:00:00 UTC,2445502.500000,28.7317,-95.2428,0036,-9.70,-2.42,10.0000,256.0000
1983-06-17 00:30:00 UTC,2445502.520833,28.7317,-95.2428,0036,-11.05,-4.69,12.0000,247.0000
1983-06-17 01:00:00 UTC,2445502.541667,28.7317,-95.2428,0036,-12.12,-7.00,14.0000,240.0000
1983-06-17 01:30:00 UTC,2445502.562500,28.7317,-95.2428,0036,-14.09,-9.51,17.0000,236.0000
1983-06-17 02:00:00 UTC,2445502.583333,28.7317,-95.2428,0036,-14.92,-10.07,18.0000,236.0000
1983-06-17 02:30:00 UTC,2445502.604167,28.7317,-95.2428,0036,-15.10,-9.80,18.0000,237.0000
1983-06-17 03:00:00 UTC,2445502.625000,28.7317,-95.2428,0036,-16.11,-10.07,19.0000,238.0000
1983-06-17 03:30:00 UTC,2445502.645833,28.7317,-95.2428,0036,-15.93,-10.35,19.0000,237.0000
1983-06-17 04:00:00 UTC,2445502.666667,28.7317,-95.2428,0036,-15.56,-10.90,19.0000,235.0000
1983-06-17 04:30:00 UTC,2445502.687500,28.7317,-95.2428,0036,-14.77,-11.96,19.0000,231.0000
1983-06-17 05:00:00 UTC,2445502.708333,28.7317,-95.2428,0036,-13.58,-11.81,18.0000,229.0000
1983-06-17 05:30:00 UTC,2445502.729167,28.7317,-95.2428,0036,-13.58,-11.81,18.0000,229.0000
1983-06-17 06:00:00 UTC,2445502.750000,28.7317,-95.2428,0036,-13.38,-12.04,18.0000,228.0000
1983-06-17 06:30:00 UTC,2445502.770833,28.7317,-95.2428,0036,-13.16,-12.28,18.0000,227.0000
1983-06-17 07:00:00 UTC,2445502.791667,28.7317,-95.2428,0036,-12.95,-12.50,18.0000,226.0000
1983-06-17 07:30:00 UTC,2445502.812500,28.7317,-95.2428,0036,-12.95,-12.50,18.0000,226.0000
1983-06-17 08:00:00 UTC,2445502.833333,28.7317,-95.2428,0036,-12.23,-11.81,17.0000,226.0000
1983-06-17 08:30:00 UTC,2445502.854167,28.7317,-95.2428,0036,-10.61,-10.61,15.0000,225.0000
1983-06-17 09:00:00 UTC,2445502.875000,28.7317,-95.2428,0036,-8.53,-9.81,13.0000,221.0000
1983-06-17 09:30:00 UTC,2445502.895833,28.7317,-95.2428,0036,-7.22,-9.58,12.0000,217.0000
1983-06-17 10:00:00 UTC,2445502.916667,28.7317,-95.2428,0036,-6.71,-9.95,12.0000,214.0000
1983-06-17 10:30:00 UTC,2445502.937500,28.7317,-95.2428,0036,-7.42,-11.87,14.0000,212.0000
1983-06-17 11:00:00 UTC,2445502.958333,28.7317,-95.2428,0036,-8.03,-11.47,14.0000,215.0000
1983-06-17 11:30:00 UTC,2445502.979167,28.7317,-95.2428,0036,-8.92,-8.03,12.0000,228.0000
1983-06-17 12:00:00 UTC,2445503.000000,28.7317,-95.2428,0036,-7.83,-1.66,8.0000,258.0000
1983-06-17 12:30:00 UTC,2445503.020833,28.7317,-95.2428,0036,-6.29,3.07,7.0000,296.0000
1983-06-17 13:00:00 UTC,2445503.041667,28.7317,-95.2428,0036,-5.12,4.77,7.0000,313.0000
1983-06-17 13:30:00 UTC,2445503.062500,28.7317,-95.2428,0036,-4.95,4.95,7.0000,315.0000
1983-06-17 14:00:00 UTC,2445503.083333,28.7317,-95.2428,0036,-5.36,4.50,7.0000,310.0000
1983-06-17 14:30:00 UTC,2445503.104167,28.7317,-95.2428,0036,-6.54,2.51,7.0000,291.0000
1983-06-17 15:00:00 UTC,2445503.125000,28.7317,-95.2428,0036,-8.95,0.94,9.0000,276.0000
1983-06-17 15:30:00 UTC,2445503.145833,28.7317,-95.2428,0036,-8.98,-0.63,9.0000,266.0000
1983-06-17 16:00:00 UTC,2445503.166667,28.7317,-95.2428,0036,-10.27,-3.94,11.0000,249.0000
1983-06-17 16:30:00 UTC,2445503.187500,28.7317,-95.2428,0036,-12.44,-8.39,15.0000,236.0000
1983-06-17 17:00:00 UTC,2445503.208333,28.7317,-95.2428,0036,-13.40,-10.47,17.0000,232.0000
1983-06-17 17:30:00 UTC,2445503.229167,28.7317,-95.2428,0036,-13.79,-11.57,18.0000,230.0000
1983-06-17 18:00:00 UTC,2445503.250000,28.7317,-95.2428,0036,-13.79,-11.57,18.0000,230.0000
1983-06-17 18:30:00 UTC,2445503.270833,28.7317,-95.2428,0036,-13.99,-11.33,18.0000,231.0000
1983-06-17 19:00:00 UTC,2445503.291667,28.7317,-95.2428,0036,-13.58,-10.23,17.0000,233.0000
1983-06-17 19:30:00 UTC,2445503.312500,28.7317,-95.2428,0036,-12.14,-8.82,15.0000,234.0000
1983-06-17 20:00:00 UTC,2445503.333333,28.7317,-95.2428,0036,-9.12,-6.15,11.0000,236.0000
1983-06-17 20:30:00 UTC,2445503.354167,28.7317,-95.2428,0036,-5.87,-3.81,7.0000,237.0000
1983-06-17 21:00:00 UTC,2445503.375000,28.7317,-95.2428,0036,-4.60,-3.86,6.0000,230.0000
1983-06-17 21:30:00 UTC,2445503.395833,28.7317,-95.2428,0036,-2.57,-3.06,4.0000,220.0000
1983-06-17 22:00:00 UTC,2445503.416667,28.7317,-95.2428,0036,-0.42,-0.91,1.0000,205.0000
1983-06-17 22:30:00 UTC,2445503.437500,28.7317,-95.2428,0036,0.34,-0.94,1.0000,160.0000
1983-06-17 23:00:00 UTC,2445503.458333,28.7317,-95.2428,0036,0.10,-3.00,3.0000,178.0000
1983-06-17 23:30:00 UTC,2445503.479167,28.7317,-95.2428,0036,-2.78,-8.56,9.0000,198.0000
1983-06-18 00:00:00 UTC,2445503.500000,28.7317,-95.2428,0036,-8.24,-13.71,16.0000,211.0000
1983-06-18 00:30:00 UTC,2445503.520833,28.7317,-95.2428,0036,-14.32,-15.36,21.0000,223.0000
1983-06-18 01:00:00 UTC,2445503.541667,28.7317,-95.2428,0036,-17.55,-16.37,24.0000,227.0000
1983-06-18 01:30:00 UTC,2445503.562500,28.7317,-95.2428,0036,-18.39,-15.43,24.0000,230.0000
1983-06-18 02:00:00 UTC,2445503.583333,28.7317,-95.2428,0036,-19.42,-14.11,24.0000,234.0000
1983-06-18 02:30:00 UTC,2445503.604167,28.7317,-95.2428,0036,-20.35,-12.72,24.0000,238.0000
1983-06-18 03:00:00 UTC,2445503.625000,28.7317,-95.2428,0036,-21.65,-12.50,25.0000,240.0000
1983-06-18 03:30:00 UTC,2445503.645833,28.7317,-95.2428,0036,-23.17,-11.80,26.0000,243.0000
1983-06-18 04:00:00 UTC,2445503.666667,28.7317,-95.2428,0036,-26.31,-9.58,28.0000,250.0000
1983-06-18 04:30:00 UTC,2445503.687500,28.7317,-95.2428,0036,-28.26,-6.52,29.0000,257.0000
1983-06-18 05:00:00 UTC,2445503.708333,28.7317,-95.2428,0036,-28.78,-3.53,29.0000,263.0000
1983-06-18 05:30:00 UTC,2445503.729167,28.7317,-95.2428,0036,-27.98,0.98,28.0000,272.0000
1983-06-18 06:00:00 UTC,2445503.750000,28.7317,-95.2428,0036,-27.57,4.86,28.0000,280.0000
1983-06-18 06:30:00 UTC,2445503.770833,28.7317,-95.2428,0036,-25.95,7.44,27.0000,286.0000
1983-06-18 07:00:00 UTC,2445503.791667,28.7317,-95.2428,0036,-23.49,8.55,25.0000,290.0000
1983-06-18 07:30:00 UTC,2445503.812500,28.7317,-95.2428,0036,-21.01,9.35,23.0000,294.0000
1983-06-18 08:00:00 UTC,2445503.833333,28.7317,-95.2428,0036,-16.04,8.17,18.0000,297.0000
1983-06-18 08:30:00 UTC,2445503.854167,28.7317,-95.2428,0036,-11.88,5.29,13.0000,294.0000
1983-06-18 09:00:00 UTC,2445503.875000,28.7317,-95.2428,0036,-7.92,1.11,8.0000,278.0000
1983-06-18 09:30:00 UTC,2445503.895833,28.7317,-95.2428,0036,-5.09,-3.18,6.0000,238.0000
1983-06-18 10:00:00 UTC,2445503.916667,28.7317,-95.2428,0036,-3.07,-6.29,7.0000,206.0000
1983-06-18 10:30:00 UTC,2445503.937500,28.7317,-95.2428,0036,-2.18,-8.73,9.0000,194.0000
1983-06-18 11:00:00 UTC,2445503.958333,28.7317,-95.2428,0036,-1.13,-12.95,13.0000,185.0000
1983-06-18 11:30:00 UTC,2445503.979167,28.7317,-95.2428,0036,-2.64,-18.82,19.0000,188.0000
1983-06-18 12:00:00 UTC,2445504.000000,28.7317,-95.2428,0036,-4.78,-22.50,23.0000,192.0000
1983-06-18 12:30:00 UTC,2445504.020833,28.7317,-95.2428,0036,-4.01,-20.61,21.0000,191.0000
1983-06-18 13:00:00 UTC,2445504.041667,28.7317,-95.2428,0036,-3.95,-18.58,19.0000,192.0000
1983-06-18 13:30:00 UTC,2445504.062500,28.7317,-95.2428,0036,-5.44,-20.28,21.0000,195.0000
1983-06-18 14:00:00 UTC,2445504.083333,28.7317,-95.2428,0036,-6.89,-24.03,25.0000,196.0000
1983-06-18 14:30:00 UTC,2445504.104167,28.7317,-95.2428,0036,-9.44,-27.42,29.0000,199.0000
1983-06-18 15:00:00 UTC,2445504.125000,28.7317,-95.2428,0036,-9.77,-28.37,30.0000,199.0000
1983-06-18 15:30:00 UTC,2445504.145833,28.7317,-95.2428,0036,-7.76,-28.98,30.0000,195.0000
1983-06-18 16:00:00 UTC,2445504.166667,28.7317,-95.2428,0036,-6.03,-28.37,29.0000,192.0000
1983-06-18 16:30:00 UTC,2445504.187500,28.7317,-95.2428,0036,-6.45,-30.32,31.0000,192.0000
1983-06-18 17:00:00 UTC,2445504.208333,28.7317,-95.2428,0036,-7.20,-31.18,32.0000,193.0000
1983-06-18 17:30:00 UTC,2445504.229167,28.7317,-95.2428,0036,-6.97,-30.21,31.0000,193.0000
1983-06-18 18:00:00 UTC,2445504.250000,28.7317,-95.2428,0036,-6.03,-28.37,29.0000,192.0000
1983-06-18 18:30:00 UTC,2445504.270833,28.7317,-95.2428,0036,-5.82,-27.39,28.0000,192.0000
1983-06-18 19:00:00 UTC,2445504.291667,28.7317,-95.2428,0036,-5.34,-27.49,28.0000,191.0000
1983-06-18 19:30:00 UTC,2445504.312500,28.7317,-95.2428,0036,-5.04,-28.56,29.0000,190.0000
1983-06-18 20:00:00 UTC,2445504.333333,28.7317,-95.2428,0036,-8.54,-29.80,31.0000,196.0000
1983-06-18 20:30:00 UTC,2445504.354167,28.7317,-95.2428,0036,-12.68,-27.19,30.0000,205.0000
1983-06-18 21:00:00 UTC,2445504.375000,28.7317,-95.2428,0036,-15.37,-24.59,29.0000,212.0000
1983-06-18 21:30:00 UTC,2445504.395833,28.7317,-95.2428,0036,-18.25,-22.54,29.0000,219.0000
1983-06-18 22:00:00 UTC,2445504.416667,28.7317,-95.2428,0036,-20.15,-20.86,29.0000,224.0000
1983-06-18 22:30:00 UTC,2445504.437500,28.7317,-95.2428,0036,-21.89,-19.03,29.0000,229.0000
1983-06-18 23:00:00 UTC,2445504.458333,28.7317,-95.2428,0036,-23.31,-18.88,30.0000,231.0000
1983-06-18 23:30:00 UTC,2445504.479167,28.7317,-95.2428,0036,-23.31,-18.88,30.0000,231.0000
1983-06-19 00:00:00 UTC,2445504.500000,28.7317,-95.2428,0036,-21.55,-19.40,29.0000,228.0000
1983-06-19 00:30:00 UTC,2445504.520833,28.7317,-95.2428,0036,-20.86,-20.15,29.0000,226.0000
1983-06-19 01:00:00 UTC,2445504.541667,28.7317,-95.2428,0036,-20.81,-18.74,28.0000,228.0000
1983-06-19 01:30:00 UTC,2445504.562500,28.7317,-95.2428,0036,-21.28,-16.62,27.0000,232.0000
1983-06-19 02:00:00 UTC,2445504.583333,28.7317,-95.2428,0036,-21.81,-14.16,26.0000,237.0000
1983-06-19 02:30:00 UTC,2445504.604167,28.7317,-95.2428,0036,-21.65,-12.50,25.0000,240.0000
1983-06-19 03:00:00 UTC,2445504.625000,28.7317,-95.2428,0036,-22.52,-13.00,26.0000,240.0000
1983-06-19 03:30:00 UTC,2445504.645833,28.7317,-95.2428,0036,-24.06,-12.26,27.0000,243.0000
1983-06-19 04:00:00 UTC,2445504.666667,28.7317,-95.2428,0036,-25.21,-9.68,27.0000,249.0000
1983-06-19 04:30:00 UTC,2445504.687500,28.7317,-95.2428,0036,-25.37,-9.23,27.0000,250.0000
1983-06-19 05:00:00 UTC,2445504.708333,28.7317,-95.2428,0036,-24.58,-8.46,26.0000,251.0000
1983-06-19 05:30:00 UTC,2445504.729167,28.7317,-95.2428,0036,-23.18,-6.21,24.0000,255.0000
1983-06-19 06:00:00 UTC,2445504.750000,28.7317,-95.2428,0036,-22.41,-5.17,23.0000,257.0000
1983-06-19 06:30:00 UTC,2445504.770833,28.7317,-95.2428,0036,-21.75,-7.49,23.0000,251.0000
1983-06-19 07:00:00 UTC,2445504.791667,28.7317,-95.2428,0036,-23.01,-9.77,25.0000,247.0000
1983-06-19 07:30:00 UTC,2445504.812500,28.7317,-95.2428,0036,-25.68,-8.34,27.0000,252.0000
1983-06-19 08:00:00 UTC,2445504.833333,28.7317,-95.2428,0036,-26.20,-6.53,27.0000,256.0000
1983-06-19 08:30:00 UTC,2445504.854167,28.7317,-95.2428,0036,-22.95,-7.02,24.0000,253.0000
1983-06-19 09:00:00 UTC,2445504.875000,28.7317,-95.2428,0036,-19.97,-6.49,21.0000,252.0000
1983-06-19 09:30:00 UTC,2445504.895833,28.7317,-95.2428,0036,-17.30,-4.96,18.0000,254.0000
1983-06-19 10:00:00 UTC,2445504.916667,28.7317,-95.2428,0036,-18.90,-1.99,19.0000,264.0000
1983-06-19 10:30:00 UTC,2445504.937500,28.7317,-95.2428,0036,-23.94,1.67,24.0000,274.0000
1983-06-19 11:00:00 UTC,2445504.958333,28.7317,-95.2428,0036,-27.89,2.44,28.0000,275.0000
1983-06-19 11:30:00 UTC,2445504.979167,28.7317,-95.2428,0036,-26.00,0.45,26.0000,271.0000
1983-06-19 12:00:00 UTC,2445505.000000,28.7317,-95.2428,0036,-24.97,-1.31,25.0000,267.0000
1983-06-19 12:30:00 UTC,2445505.020833,28.7317,-95.2428,0036,-23.77,-3.34,24.0000,262.0000
1983-06-19 13:00:00 UTC,2445505.041667,28.7317,-95.2428,0036,-22.58,-4.39,23.0000,259.0000
1983-06-19 13:30:00 UTC,2445505.062500,28.7317,-95.2428,0036,-22.65,-3.99,23.0000,260.0000
1983-06-19 14:00:00 UTC,2445505.083333,28.7317,-95.2428,0036,-22.78,-3.20,23.0000,262.0000
1983-06-19 14:30:00 UTC,2445505.104167,28.7317,-95.2428,0036,-22.72,-3.60,23.0000,261.0000
1983-06-19 15:00:00 UTC,2445505.125000,28.7317,-95.2428,0036,-21.67,-3.82,22.0000,260.0000
1983-06-19 15:30:00 UTC,2445505.145833,28.7317,-95.2428,0036,-20.38,-5.08,21.0000,256.0000
1983-06-19 16:00:00 UTC,2445505.166667,28.7317,-95.2428,0036,-18.79,-6.84,20.0000,250.0000
1983-06-19 16:30:00 UTC,2445505.187500,28.7317,-95.2428,0036,-18.87,-9.21,21.0000,244.0000
1983-06-19 17:00:00 UTC,2445505.208333,28.7317,-95.2428,0036,-21.65,-12.50,25.0000,240.0000
1983-06-19 17:30:00 UTC,2445505.229167,28.7317,-95.2428,0036,-24.32,-15.79,29.0000,237.0000
1983-06-19 18:00:00 UTC,2445505.250000,28.7317,-95.2428,0036,-25.39,-17.78,31.0000,235.0000
1983-06-19 18:30:00 UTC,2445505.270833,28.7317,-95.2428,0036,-25.22,-19.70,32.0000,232.0000
1983-06-19 19:00:00 UTC,2445505.291667,28.7317,-95.2428,0036,-27.20,-22.03,35.0000,231.0000
1983-06-19 19:30:00 UTC,2445505.312500,28.7317,-95.2428,0036,-29.88,-25.07,39.0000,230.0000
1983-06-19 20:00:00 UTC,2445505.333333,28.7317,-95.2428,0036,-32.17,-27.00,42.0000,230.0000
1983-06-19 20:30:00 UTC,2445505.354167,28.7317,-95.2428,0036,-34.67,-27.09,44.0000,232.0000
1983-06-19 21:00:00 UTC,2445505.375000,28.7317,-95.2428,0036,-35.94,-27.08,45.0000,233.0000
1983-06-19 21:30:00 UTC,2445505.395833,28.7317,-95.2428,0036,-35.94,-27.08,45.0000,233.0000
1983-06-19 22:00:00 UTC,2445505.416667,28.7317,-95.2428,0036,-36.41,-26.45,45.0000,234.0000
1983-06-19 22:30:00 UTC,2445505.437500,28.7317,-95.2428,0036,-35.94,-27.08,45.0000,233.0000
1983-06-19 23:00:00 UTC,2445505.458333,28.7317,-95.2428,0036,-35.94,-27.08,45.0000,233.0000
1983-06-19 23:30:00 UTC,2445505.479167,28.7317,-95.2428,0036,-37.31,-23.32,44.0000,238.0000
1983-06-20 00:00:00 UTC,2445505.500000,28.7317,-95.2428,0036,-35.86,-19.88,41.0000,241.0000
1983-06-20 00:30:00 UTC,2445505.520833,28.7317,-95.2428,0036,-33.86,-17.25,38.0000,243.0000
1983-06-20 01:00:00 UTC,2445505.541667,28.7317,-95.2428,0036,-34.98,-12.05,37.0000,251.0000
1983-06-20 01:30:00 UTC,2445505.562500,28.7317,-95.2428,0036,-34.10,-7.87,35.0000,257.0000
1983-06-20 02:00:00 UTC,2445505.583333,28.7317,-95.2428,0036,-30.62,-4.85,31.0000,261.0000
1983-06-20 02:30:00 UTC,2445505.604167,28.7317,-95.2428,0036,-28.93,-2.02,29.0000,266.0000
1983-06-20 03:00:00 UTC,2445505.625000,28.7317,-95.2428,0036,-28.78,-3.53,29.0000,263.0000
1983-06-20 03:30:00 UTC,2445505.645833,28.7317,-95.2428,0036,-26.47,-9.12,28.0000,251.0000
1983-06-20 04:00:00 UTC,2445505.666667,28.7317,-95.2428,0036,-23.37,-11.40,26.0000,244.0000
1983-06-20 04:30:00 UTC,2445505.687500,28.7317,-95.2428,0036,-25.82,-7.89,27.0000,253.0000
1983-06-20 05:00:00 UTC,2445505.708333,28.7317,-95.2428,0036,-28.98,-1.01,29.0000,268.0000
1983-06-20 05:30:00 UTC,2445505.729167,28.7317,-95.2428,0036,-29.00,-0.00,29.0000,270.0000
1983-06-20 06:00:00 UTC,2445505.750000,28.7317,-95.2428,0036,-27.93,-1.95,28.0000,266.0000
1983-06-20 06:30:00 UTC,2445505.770833,28.7317,-95.2428,0036,-25.52,-4.96,26.0000,259.0000
1983-06-20 07:00:00 UTC,2445505.791667,28.7317,-95.2428,0036,-23.56,-10.99,26.0000,245.0000
1983-06-20 07:30:00 UTC,2445505.812500,28.7317,-95.2428,0036,-24.59,-15.37,29.0000,238.0000
1983-06-20 08:00:00 UTC,2445505.833333,28.7317,-95.2428,0036,-27.43,-16.48,32.0000,239.0000
1983-06-20 08:30:00 UTC,2445505.854167,28.7317,-95.2428,0036,-29.74,-16.48,34.0000,241.0000
1983-06-20 09:00:00 UTC,2445505.875000,28.7317,-95.2428,0036,-30.61,-16.97,35.0000,241.0000
1983-06-20 09:30:00 UTC,2445505.895833,28.7317,-95.2428,0036,-32.67,-17.37,37.0000,242.0000
1983-06-20 10:00:00 UTC,2445505.916667,28.7317,-95.2428,0036,-34.75,-17.71,39.0000,243.0000
1983-06-20 10:30:00 UTC,2445505.937500,28.7317,-95.2428,0036,-33.86,-17.25,38.0000,243.0000
1983-06-20 11:00:00 UTC,2445505.958333,28.7317,-95.2428,0036,-32.89,-14.64,36.0000,246.0000
1983-06-20 11:30:00 UTC,2445505.979167,28.7317,-95.2428,0036,-34.24,-11.12,36.0000,252.0000
1983-06-20 12:00:00 UTC,2445506.000000,28.7317,-95.2428,0036,-38.00,-8.77,39.0000,257.0000
1983-06-20 12:30:00 UTC,2445506.020833,28.7317,-95.2428,0036,-43.19,-8.40,44.0000,259.0000
1983-06-20 13:00:00 UTC,2445506.041667,28.7317,-95.2428,0036,-44.99,-9.56,46.0000,258.0000
1983-06-20 13:30:00 UTC,2445506.062500,28.7317,-95.2428,0036,-46.14,-8.97,47.0000,259.0000
1983-06-20 14:00:00 UTC,2445506.083333,28.7317,-95.2428,0036,-46.29,-8.16,47.0000,260.0000
1983-06-20 14:30:00 UTC,2445506.104167,28.7317,-95.2428,0036,-46.42,-7.35,47.0000,261.0000
1983-06-20 15:00:00 UTC,2445506.125000,28.7317,-95.2428,0036,-46.42,-7.35,47.0000,261.0000
1983-06-20 15:30:00 UTC,2445506.145833,28.7317,-95.2428,0036,-46.42,-7.35,47.0000,261.0000
1983-06-20 16:00:00 UTC,2445506.166667,28.7317,-95.2428,0036,-45.43,-7.20,46.0000,261.0000
1983-06-20 16:30:00 UTC,2445506.187500,28.7317,-95.2428,0036,-46.42,-7.35,47.0000,261.0000
1983-06-20 17:00:00 UTC,2445506.208333,28.7317,-95.2428,0036,-48.40,-7.67,49.0000,261.0000
1983-06-20 17:30:00 UTC,2445506.229167,28.7317,-95.2428,0036,-49.51,-6.96,50.0000,262.0000
1983-06-20 18:00:00 UTC,2445506.250000,28.7317,-95.2428,0036,-49.97,-1.75,50.0000,268.0000
1983-06-20 18:30:00 UTC,2445506.270833,28.7317,-95.2428,0036,-50.50,7.10,51.0000,278.0000
1983-06-20 19:00:00 UTC,2445506.291667,28.7317,-95.2428,0036,-49.89,10.60,51.0000,282.0000
1983-06-20 19:30:00 UTC,2445506.312500,28.7317,-95.2428,0036,-48.26,8.51,49.0000,280.0000
1983-06-20 20:00:00 UTC,2445506.333333,28.7317,-95.2428,0036,-47.64,5.85,48.0000,277.0000
1983-06-20 20:30:00 UTC,2445506.354167,28.7317,-95.2428,0036,-45.55,6.40,46.0000,278.0000
1983-06-20 21:00:00 UTC,2445506.375000,28.7317,-95.2428,0036,-46.74,4.91,47.0000,276.0000
1983-06-20 21:30:00 UTC,2445506.395833,28.7317,-95.2428,0036,-51.99,0.91,52.0000,271.0000
1983-06-20 22:00:00 UTC,2445506.416667,28.7317,-95.2428,0036,-54.87,-3.84,55.0000,266.0000
1983-06-20 22:30:00 UTC,2445506.437500,28.7317,-95.2428,0036,-52.60,-6.46,53.0000,263.0000
1983-06-20 23:00:00 UTC,2445506.458333,28.7317,-95.2428,0036,-48.63,-5.97,49.0000,263.0000
1983-06-20 23:30:00 UTC,2445506.479167,28.7317,-95.2428,0036,-45.75,-4.81,46.0000,264.0000
1983-06-21 00:00:00 UTC,2445506.500000,28.7317,-95.2428,0036,-42.90,-3.00,43.0000,266.0000
1983-06-21 00:30:00 UTC,2445506.520833,28.7317,-95.2428,0036,-39.98,-1.40,40.0000,268.0000
1983-06-21 01:00:00 UTC,2445506.541667,28.7317,-95.2428,0036,-34.98,-1.22,35.0000,268.0000
1983-06-21 01:30:00 UTC,2445506.562500,28.7317,-95.2428,0036,-27.57,-4.86,28.0000,260.0000
1983-06-21 02:00:00 UTC,2445506.583333,28.7317,-95.2428,0036,-24.11,-9.74,26.0000,248.0000
1983-06-21 02:30:00 UTC,2445506.604167,28.7317,-95.2428,0036,-23.84,-12.68,27.0000,242.0000